This demonstration page uses our WeatherBlox Daily Observations layout. Learn more.

38.89511, -77.03637

Hourly Observations for January 15, 2019

Temp ( °F °C ) Dew Point ( °F °C ) Humidity (%) Winds ( mph kmh ) Pressure ( in mb ) Visibility ( mi km ) Precip ( " mm )
12:52 am 00:52 Mostly Clear 28 -2.2 22 -5.6 78 78 N 6 9 30.18 1022 10 16.09344 0 0
1:52 am 01:52 Mostly Clear 27 -2.8 21 -6.1 78 78 NW 3 6 30.18 1022 10 16.09344 0 0
2:52 am 02:52 Mostly Clear 27 -2.8 21 -6.1 78 78 NNW 6 9 30.18 1022 10 16.09344 0 0
3:52 am 03:52 Partly Cloudy 28 -2.2 22 -5.6 78 78 Calm 30.18 1022 10 16.09344 0 0
4:52 am 04:52 Mostly Clear 28 -2.2 22 -5.6 78 78 N 5 7 30.18 1022 10 16.09344 0 0
5:52 am 05:52 Clear 28 -2.2 22 -5.6 78 78 VRB 5 7 30.18 1022 10 16.09344 0 0
6:52 am 06:52 Clear 29 -1.7 22 -5.6 75 75 N 7 11 30.18 1022 10 16.09344 0 0
7:52 am 07:52 Sunny 31 -0.6 23 -5 72 72 VRB 7 11 30.21 1023 10 16.09344 0 0
8:52 am 08:52 Sunny 34 1.1 23 -5 64 64 NNW 8 13 30.21 1023 10 16.09344 0 0
9:52 am 09:52 Mostly Sunny 35 1.7 23 -5 61 61 NNW 10 17 30.24 1024 10 16.09344 0 0
10:52 am 10:52 Mostly Sunny 37 2.8 23 -5 57 57 NW 15 24 30.24 1024 10 16.09344 0 0
11:52 am 11:52 Partly Cloudy 37 2.8 23 -5 57 57 NNW 20 31 30.21 1023 10 16.09344 0 0
12:52 pm 12:52 Mostly Cloudy 38 3.3 23 -5 55 55 NNW 13 20 30.18 1022 10 16.09344 0 0
1:52 pm 13:52 Cloudy 38 3.3 23 -5 55 55 WNW 10 17 30.18 1022 10 16.09344 0 0
2:52 pm 14:52 Mostly Cloudy 38 3.3 22 -5.6 52 52 NNW 12 19 30.18 1022 10 16.09344 0 0
3:52 pm 15:52 Mostly Sunny 38 3.3 22 -5.6 52 52 NNW 9 15 30.18 1022 10 16.09344 0 0
4:52 pm 16:52 Mostly Sunny 37 2.8 23 -5 57 57 N 6 9 30.18 1022 10 16.09344 0 0
5:52 pm 17:52 Clear 35 1.7 22 -5.6 59 59 N 6 9 30.18 1022 10 16.09344 0 0
6:52 pm 18:52 Clear 37 2.8 22 -5.6 54 54 WNW 7 11 30.18 1022 10 16.09344 0 0
7:52 pm 19:52 Clear 36 2.2 23 -5 59 59 Calm 30.18 1022 10 16.09344 0 0
8:52 pm 20:52 Clear 35 1.7 22 -5.6 59 59 WSW 3 6 30.18 1022 10 16.09344 0 0
9:52 pm 21:52 Clear 32 0 23 -5 69 69 SW 3 6 30.18 1022 10 16.09344 0 0
10:52 pm 22:52 Clear 32 0 23 -5 69 69 S 3 6 30.15 1021 10 16.09344 0 0
11:52 pm 23:52 Clear 30 -1.1 23 -5 75 75 SSW 7 11 30.15 1021 10 16.09344 0 0

Powered by AerisWeather